TimeEST,TemperatureF,Dew PointF,Humidity,Sea Level PressureIn,VisibilityMPH,Wind Direction,Wind SpeedMPH,Gust SpeedMPH,PrecipitationIn,Events,Conditions,WindDirDegrees,DateUTC
12:25 AM,-9999,-9999,N/A,29.57,-9999.0,Calm,Calm,-,0.00,,Unknown,0,2013-01-05 05:25:00
1:25 AM,-9999,-9999,N/A,29.55,-9999.0,Calm,Calm,-,N/A,,Unknown,0,2013-01-05 06:25:00
2:25 AM,-9999,-9999,N/A,29.55,-9999.0,Variable,4.6,15.0,0.01,,Unknown,0,2013-01-05 07:25:00
3:25 AM,-9999,-9999,N/A,29.57,-9999.0,Variable,4.6,18.4,0.07,,Unknown,0,2013-01-05 08:25:00
4:25 AM,-9999,-9999,N/A,29.64,-9999.0,Variable,3.5,-,0.07,,Unknown,0,2013-01-05 09:25:00
5:25 AM,-9999,-9999,N/A,29.69,-9999.0,Variable,2.3,-,N/A,,Unknown,0,2013-01-05 10:25:00
6:25 AM,20.7,-9999,N/A,29.74,-9999.0,WSW,8.1,18.4,0.03,,Unknown,240,2013-01-05 11:25:00
7:25 AM,13.8,11.1,89,29.86,-9999.0,Variable,4.6,20.7,0.12,,Unknown,0,2013-01-05 12:25:00
8:25 AM,11.8,8.6,87,29.95,-9999.0,Variable,4.6,12.7,0.09,,Unknown,0,2013-01-05 13:25:00
9:25 AM,11.3,7.3,84,30.01,-9999.0,WNW,6.9,16.1,0.08,,Unknown,290,2013-01-05 14:25:00
10:25 AM,11.1,6.4,81,30.07,-9999.0,Variable,4.6,20.7,0.03,,Unknown,0,2013-01-05 15:25:00
11:25 AM,11.8,3.9,71,30.07,-9999.0,WSW,8.1,24.2,0.07,,Unknown,250,2013-01-05 16:25:00
12:28 PM,11.7,1.2,63,30.09,-9999.0,West,10.4,21.9,0.03,,Unknown,280,2013-01-05 17:28:00
1:29 PM,12.6,3.0,66,30.13,-9999.0,Variable,4.6,15.0,0.06,,Unknown,0,2013-01-05 18:29:00
2:25 PM,11.7,1.6,64,30.15,-9999.0,WSW,8.1,18.4,0.06,,Unknown,250,2013-01-05 19:25:00
3:29 PM,9.7,-0.0,65,30.17,-9999.0,Variable,5.8,15.0,0.06,,Unknown,0,2013-01-05 20:29:00
4:25 PM,6.8,-0.2,73,30.19,-9999.0,Variable,3.5,-,0.01,,Unknown,0,2013-01-05 21:25:00
5:25 PM,0.7,-3.3,83,30.22,-9999.0,Calm,Calm,-,N/A,,Unknown,0,2013-01-05 22:25:00
6:26 PM,-4.2,-7.6,85,30.24,-9999.0,Calm,Calm,-,0.01,,Unknown,0,2013-01-05 23:26:00
7:25 PM,-7.2,-10.7,85,30.25,-9999.0,Calm,Calm,-,0.01,,Unknown,0,2013-01-06 00:25:00
8:25 PM,-8.9,-12.1,86,30.25,-9999.0,Calm,Calm,-,0.00,,Unknown,0,2013-01-06 01:25:00
9:25 PM,-12.5,-16.2,83,30.25,-9999.0,Calm,Calm,-,N/A,,Unknown,0,2013-01-06 02:25:00
10:25 PM,-13.5,-17.1,84,30.26,-9999.0,Calm,Calm,-,0.01,,Unknown,0,2013-01-06 03:25:00
11:25 PM,-15.0,-20.2,77,30.26,-9999.0,Calm,Calm,-,N/A,,Unknown,0,2013-01-06 04:25:00